Hourly Data Report for October 23, 2014

All times are specified in Local Standard Time (LST). Add 1 hour to adjust for Daylight Saving Time where and when it is observed.

WINNIPEG A CS
MANITOBA

49°55'00.000" N
97°14'58.000" W
238.70 m
502S001
71849
XWG

Download Data

Hourly Data (October 2014)
Hourly Data Report for October 23, 2014
Temp Definition
°C
Dew Point Temp Definition
°C
Rel Hum Definition
%
Wind Dir Definition
10's deg

Wind Spd Definition
km/h
Visibility Definition
km
Stn Press Definition
kPa
Hmdx Definition


Wind Chill Definition


Weather Definition


TIME
00:00 10.4 8.7 89 22 16   97.85     LegendNANA
01:00 11.2 8.9 86 22 14   97.84     LegendNANA
02:00 11.2 8.6 84 21 17   97.86     LegendNANA
03:00 10.9 8.4 84 23 22   97.85     LegendNANA
04:00 10.4 8.0 85 24 21   97.89     LegendNANA
05:00 9.0 7.1 88 24 16   97.91     LegendNANA
06:00 9.3 7.4 88 23 17   97.91     LegendNANA
07:00 9.6 7.7 88 22 17   97.91     LegendNANA
08:00 9.8 7.7 87 23 12   97.93     LegendNANA
09:00 10.1 7.5 84 22 18   97.96     LegendNANA
10:00 10.9 7.6 80 22 21   97.98     LegendNANA
11:00 13.3 8.2 71 24 19   97.97     LegendNANA
12:00 14.4 8.9 70 23 20   97.96     LegendNANA
13:00 15.5 8.5 63 24 19   97.94     LegendNANA
14:00 16.3 7.6 56 23 20   97.91     LegendNANA
15:00 17.0 6.8 51 23 14   97.89     LegendNANA
16:00 16.3 6.5 52 21 12   97.86     LegendNANA
17:00 11.7 5.3 65 17 10   97.85     LegendNANA
18:00 11.2 5.5 68 17 13   97.83     LegendNANA
19:00 12.1 5.2 63 19 17   97.82     LegendNANA
20:00 12.8 4.1 55 21 18   97.81     LegendNANA
21:00 11.9 4.2 59 20 18   97.78     LegendNANA
22:00 12.1 4.0 58 20 17   97.75     LegendNANA
23:00 11.8 3.9 59 19 15   97.69     LegendNANA

Notes on Data Quality.

Legend

  • E = Estimated
  • M = Missing
  • NA = Not Available
  • ‡ = Partner data that is not subject to review by the National Climate Archives
Date modified: